Location: Bennemühlen
(52.5740°N, 9.7135°E)
Time: 20:58:12
(UTC+00:00)

Tiros 1 despin weight - Pass Details

Date: 16 February 2026
Orbit: 556 x 593 km, 48.2° (Epoch: 8 March)

Event Time Altitude Azimuth Distance (km) Brightness Sun altitude
Rises 15:22:56 0° 221° (SW) 2,731 ? 9.0°
Reaches altitude 10° 15:25:29 10° 207° (SSW) 1,835 ? 8.7°
Maximum altitude 15:28:51 24° 153° (SSE) 1,185 ? 8.3°
Drops below altitude 10° 15:32:13 10° 100° (E) 1,839 ? 7.8°
Sets 15:34:47 0° 86° (E) 2,737 ? 7.5°
